Location: Niles Junction
(37.5763°N, 121.9714°W)
Time: 03:58:39
(UTC+00:00)

Cosmos 2082 Rocket - Pass Details

Date: 29 October 2020
Orbit: 833 x 854 km, 71.0° (Epoch: 23 November)

Event Time Altitude Azimuth Distance (km) Brightness Sun altitude
Exits shadow 12:09:51 56° 169° (S) 985 2.5 -28.4°
Maximum altitude 12:10:56 72° 109° (ESE) 878 2.3 -28.2°
Drops below altitude 10° 12:16:31 10° 27° (NNE) 2,450 4.9 -27.1°
Sets 12:18:58 0° 25° (NNE) 3,389 5.7 -26.6°
